Location: Unspecified
(35.6961°N, 0.0000°E)
Time: 15:13:45
(UTC+00:00)

S-56A Canister/Altair - Pass Details

Date: 04 June 2019
Orbit: 633 x 2499 km, 38.9° (Epoch: 15 June)

Event Time Altitude Azimuth Distance (km) Brightness Sun altitude
Rises 23:21:24 0° 273° (W) 2,918 10.7 -31.2°
Enters shadow 23:22:41 - 275° (W) 2,402 10.2 -31.2°
Reaches altitude 10° 23:23:35 10° 277° (W) 2,044 - -31.2°
Maximum altitude 23:28:05 61° 358° (N) 822 - -31.4°
Exits shadow 23:32:55 14° 77° (ENE) 2,240 9.9 -31.5°
Drops below altitude 10° 23:33:50 10° 79° (E) 2,598 10.3 -31.5°
Sets 23:36:56 0° 83° (E) 3,798 11.1 -31.6°
